Miscellaneous Local Product
Issued by NWS North Platte, NE

Home | Current Version | Previous Version | Text Only | Print | Product List | Glossary On
Versions: 1 2 3 4 5 6 7 8 9 10 11 12 13 14 15 16 17 18 19 20 21 22 23 24 25 26 27 28 29 30 31 32 33 34 35 36 37 38 39 40 41 42 43 44 45 46 47 48 49 50
000
AXUS43 KLBF 011710
MISLBF


WESTERN AND NORTH CENTRAL NEBRASKA HOURLY WEATHER ROUNDUP
NATIONAL WEATHER SERVICE NORTH PLATTE NE
1200 PM CDT WED APR 01 2015

***STATIONS NOT REPORTING VARIABLES SUCH AS SKY/WEATHER OR
PRESSURE ARE PROVIDED BY THE NEBRASKA DEPARTMENT OF
ROADS...RAWS...AND APRS NETWORKS...AND ARE NOT UNDER
NATIONAL WEATHER SERVICE QUALITY CONTROL***

...OBSERVATIONS IN AND NEAR THE EASTERN PANHANDLE OF NEBRASKA...

CITY           SKY/WX    TMP DP  RH WIND       PRES   REMARKS
PINE RIDGE     CLOUDY    58  35  42 N15       29.69S
CHADRON        PTSUNNY   58  36  43 NE5       29.70R
ALLIANCE       CLOUDY    63  33  32 N15       29.71R
SIDNEY         PTSUNNY   71  31  22 NW22G30   29.71S
WHITECLAY        N/A     57  35  43 E10         N/A
CRESCENT LAKE    N/A     65  25  22 NW15G25     N/A
$$

...OBSERVATIONS IN NORTH CENTRAL NEBRASKA...

CITY           SKY/WX    TMP DP  RH WIND       PRES   REMARKS
VALENTINE      PTSUNNY   61  36  39 NW16G25   29.64R
THEDFORD       PTSUNNY   73  40  30 W9        29.62S
AINSWORTH      PTSUNNY   72  35  25 NW17G25   29.58F
O`NEILL        PTSUNNY   75  43  31 S28G37    29.55F
ORD            SUNNY     76  43  30 S30G43    29.59F
BROKEN BOW     MOSUNNY   75  44  33 SW30G40   29.62F
BROWNLEE         N/A     74  38  27 NW23        N/A
SPRINGVIEW       N/A     71  40  32 W9G17       N/A
BREWSTER         N/A     75  46  35 W15         N/A
ROSE             N/A     74  48  39 S17         N/A
NEWPORT          N/A     76  46  34 W18         N/A
SARGENT          N/A     73  43  33 SW20G33     N/A
COMSTOCK         N/A     80  47  31 SW21        N/A
EWING            N/A     78  48  34 S25G36      N/A
$$

...OBSERVATIONS IN SOUTHWEST NEBRASKA AND FAR NORTHEAST COLORADO...

CITY           SKY/WX    TMP DP  RH WIND       PRES   REMARKS
WRAY           FAIR      75  25  15 NW14G20   29.70F
HOLYOKE        FAIR      79  28  15 NW17G28   29.69S
IMPERIAL         N/A     74  30  19 NW9       29.67F
OGALLALA       CLOUDY    70  29  21 NW18      29.66F
NORTH PLATTE   MOSUNNY   72  39  30 W15       29.64F
MCCOOK         MOSUNNY   75  42  30 S18       29.65F
LEXINGTON      SUNNY     74  44  34 SW30G38   29.62F
PAXTON           N/A     62  37  40 W6          N/A
SUTHERLAND       N/A     76  34  21 W12         N/A
BRADY            N/A     71  46  41 MISG        N/A
GOTHENBURG       N/A     67  40  38 S14         N/A
CALLAWAY         N/A     69  46  43 S24         N/A
$$

...NORTH PLATTE AREA...

CITY           SKY/WX    TMP DP  RH WIND       PRES   REMARKS
AIRPORT        MOSUNNY   72  39  30 W15       29.64F
DOWNTOWN         N/A     72  38  29 SW7G16      N/A
$$

...SOME WEATHER OBSERVATIONS FROM AROUND THE REGION...

CITY           SKY/WX    TMP DP  RH WIND       PRES   REMARKS
DENVER         PTSUNNY   68  22  17 NW15      29.78S
LARAMIE        CLOUDY    50  25  37 NW14      29.86S
CHEYENNE       SUNNY     59  24  26 W9        29.81F
SCOTTSBLUFF    PTSUNNY   68  29  23 W10       29.72R
RAPID CITY     PTSUNNY   56  35  45 N31G41    29.68R
PIERRE         CLOUDY    66  40  38 NW28G37   29.52R
WINNER         FAIR      67  35  30 NW21G30   29.58R
SIOUX FALLS    PTSUNNY   74  42  31 S26G37    29.56F
OMAHA          MOSUNNY   75  41  29 S23G32    29.74F
GRAND ISLAND   SUNNY     76  43  30 SW24G37   29.67F
KANSAS CITY    PTSUNNY   72  52  49 S16       29.85F
WICHITA        MOSUNNY   75  52  44 S22       29.80F
HAYS           SUNNY     75  46  35 S28G37    29.71F
LIBERAL        SUNNY     75  48  38 S18       29.76F
GOODLAND       MOSUNNY   72  40  31 S16       29.69F
$$



USA.gov is the U.S. government's official web portal to all federal, state and local government web resources and services.